Address 0x5d2238753f3ca5e649f9250c303d5c196a069f24

Txn Hash Method
Block
From
To
Value [Txn Fee]
0x2447a07dd53c7cfceffddd6c15cfea6ed640e19e9ef81f32dbb72d926487421e0x8e78cd92152918622022-09-25 17:34:4552 mins ago0x5d2238753f3ca5e649f9250c303d5c196a069f24OUT 0xd5d444af2788e78fb956818b577be9ebc5485d720 CELO0.000082628928
0x3d92f73eb5dfdaa3fabe4cffd711372f76158c9bbf9571cd7509ca338c7174140x8e78cd92152902972022-09-25 15:24:203 hrs 2 mins ago0x5d2238753f3ca5e649f9250c303d5c196a069f24OUT 0xd5d444af2788e78fb956818b577be9ebc5485d720 CELO0.000094851825
0x6a48a7c51f111b4a51549e9e0d983067c85e3ccc1232cdb16e7f3fc2b4b4b4640x8e78cd92152898512022-09-25 14:47:103 hrs 39 mins ago0x5d2238753f3ca5e649f9250c303d5c196a069f24OUT 0xd5d444af2788e78fb956818b577be9ebc5485d720 CELO0.000072795801
0xd6bc63934520f852dbffa818b08e4f33615c8ebfa4c195c9a9b493abd4300d7d0x8e78cd92152890482022-09-25 13:40:154 hrs 46 mins ago0x5d2238753f3ca5e649f9250c303d5c196a069f24OUT 0xd5d444af2788e78fb956818b577be9ebc5485d720 CELO0.000081626427
0xc40bd1056a02b42b1b5ee99b092ac0b8c784d9f4dbc108040b249781813307480x8e78cd92152886862022-09-25 13:10:055 hrs 17 mins ago0x5d2238753f3ca5e649f9250c303d5c196a069f24OUT 0xd5d444af2788e78fb956818b577be9ebc5485d720 CELO0.000082162998
0x72b4a4d2d03300002a34e1e9858f6553884e0a52af4753f348462d95cae4a3d30x8e78cd92152886852022-09-25 13:10:005 hrs 17 mins ago0x5d2238753f3ca5e649f9250c303d5c196a069f24OUT 0xd5d444af2788e78fb956818b577be9ebc5485d720 CELO0.000081624423
0x580b8f4d99c370f7817888dabf8296096c6d36f6b09b197d0b1d7fb835f2246d0x8e78cd92152874192022-09-25 11:24:307 hrs 2 mins ago0x5d2238753f3ca5e649f9250c303d5c196a069f24OUT 0xd5d444af2788e78fb956818b577be9ebc5485d720 CELO0.00009484431
0x4c905c60d6afc0dbfffa944cffde2a945a8900461955858d5b44fab4371a0e980x8e78cd92152871512022-09-25 11:02:107 hrs 24 mins ago0x5d2238753f3ca5e649f9250c303d5c196a069f24OUT 0xd5d444af2788e78fb956818b577be9ebc5485d720 CELO0.000092796723
0xab6594d893d4726ddab3707af9d4a19d5b1d8cf4bc97ab4323b10acf4b93d0fe0x8e78cd92152871482022-09-25 11:01:557 hrs 25 mins ago0x5d2238753f3ca5e649f9250c303d5c196a069f24OUT 0xd5d444af2788e78fb956818b577be9ebc5485d720 CELO0.000094852827
0xb3256b81ec6c350e22630d5c41b055895eaa2bc8d545ace1ffd5ac638c67daec0x8e78cd92152870322022-09-25 10:52:157 hrs 34 mins ago0x5d2238753f3ca5e649f9250c303d5c196a069f24OUT 0xd5d444af2788e78fb956818b577be9ebc5485d720 CELO0.000094838799
0xb0b85aad15a7fc3df7b21028a46e14a1ee47cb55078271889b4933e4908393c30x8e78cd92152859462022-09-25 9:21:459 hrs 5 mins ago0x5d2238753f3ca5e649f9250c303d5c196a069f24OUT 0xd5d444af2788e78fb956818b577be9ebc5485d720 CELO0.000082155984
0x62fc8d2c201d3a7c77c031510a172d810ecb436e971f7d9d00cdda59af2a7d8d0x8e78cd92152808032022-09-25 2:13:0816 hrs 14 mins ago0x5d2238753f3ca5e649f9250c303d5c196a069f24OUT 0xd5d444af2788e78fb956818b577be9ebc5485d720 CELO0.00007336644
0xf0c4bd8c87b24301bb1987a11f3bd25b2443565955430d90fd6ec768ce7166a90x8e78cd92152807812022-09-25 2:11:1816 hrs 15 mins ago0x5d2238753f3ca5e649f9250c303d5c196a069f24OUT 0xd5d444af2788e78fb956818b577be9ebc5485d720 CELO0.000072842895
0x77492c356a7c7b9443f035c54ae625244e7f29f2796f699d89d03c048a337e530x8e78cd92152803402022-09-25 1:34:3316 hrs 52 mins ago0x5d2238753f3ca5e649f9250c303d5c196a069f24OUT 0xd5d444af2788e78fb956818b577be9ebc5485d720 CELO0.000072841893
0x4540a68534bb6bd9f0000f5f47b6e8b1d37cb4cad587885ea52cc66ee548b47d0x8e78cd92152803372022-09-25 1:34:1816 hrs 52 mins ago0x5d2238753f3ca5e649f9250c303d5c196a069f24OUT 0xd5d444af2788e78fb956818b577be9ebc5485d720 CELO0.000072853917
0x2c45dbf20f190117cf9d69d41e24a109d76b41f35a86255f4dabfa1613fcd7eb0x8e78cd92152800262022-09-25 1:08:2317 hrs 18 mins ago0x5d2238753f3ca5e649f9250c303d5c196a069f24OUT 0xd5d444af2788e78fb956818b577be9ebc5485d720 CELO0.000079563309
0x1ef943fbee68be106508ac8a471f36bbe89951906fd2f7ec97a170d40918df100x8e78cd92152794532022-09-25 0:20:3818 hrs 6 mins ago0x5d2238753f3ca5e649f9250c303d5c196a069f24OUT 0xd5d444af2788e78fb956818b577be9ebc5485d720 CELO0.000081634443
0x4c07d4747ccbe9b9779afdca257da2468875267ca20c20fabf2c694877d8bebb0x8e78cd92152783452022-09-24 22:48:1819 hrs 38 mins ago0x5d2238753f3ca5e649f9250c303d5c196a069f24OUT 0xd5d444af2788e78fb956818b577be9ebc5485d720 CELO0.000082638948
0x2841337dc0ba52008e96ab62b62ce6149a31c4eb0b5d4f1bb3e3f7aa2c2415140x8e78cd92152779132022-09-24 22:12:1820 hrs 14 mins ago0x5d2238753f3ca5e649f9250c303d5c196a069f24OUT 0xd5d444af2788e78fb956818b577be9ebc5485d720 CELO0.000084691044
0xf07cf16c97cb5299e1c2bf2b58eac0af85c4218467651574d2748b5533a5f0cf0x8e78cd92152779122022-09-24 22:12:1320 hrs 14 mins ago0x5d2238753f3ca5e649f9250c303d5c196a069f24OUT 0xd5d444af2788e78fb956818b577be9ebc5485d720 CELO0.000084744651
0xe1519709a56f7fd1a1af5ae7e3848ac4bd68e55019ff0628ce4bb3648c29f4da0x8e78cd92152740412022-09-24 16:49:381 day 1 hr ago0x5d2238753f3ca5e649f9250c303d5c196a069f24OUT 0xd5d444af2788e78fb956818b577be9ebc5485d720 CELO0.000095382384
0x0ea9b034d564658cad5415806af6da835c22e29437489cc41f05394c446cbda00x8e78cd92152632912022-09-24 1:53:481 day 16 hrs ago0x5d2238753f3ca5e649f9250c303d5c196a069f24OUT 0xd5d444af2788e78fb956818b577be9ebc5485d720 CELO0.000072833376
0x1b2528293373ed2be4c48dbfc6205aa5dc4c4e3d7fe4e7e7fef7ebfa1be04feb0x8e78cd92152631962022-09-24 1:45:531 day 16 hrs ago0x5d2238753f3ca5e649f9250c303d5c196a069f24OUT 0xd5d444af2788e78fb956818b577be9ebc5485d720 CELO0.000074396496
0x5bd22e600a8a3ab35d4595dcbed32539cbd3d38e615cfd3ad40a8e4634f216840x8e78cd92152631942022-09-24 1:45:431 day 16 hrs ago0x5d2238753f3ca5e649f9250c303d5c196a069f24OUT 0xd5d444af2788e78fb956818b577be9ebc5485d720 CELO0.000074381466
0xe6144b0a893d43bdeb90bec97edc0c5d25a4d8fdf6c7ab9f2d6d7337990736900x39451c23152620452022-09-24 0:09:581 day 18 hrs ago0x5d2238753f3ca5e649f9250c303d5c196a069f24OUT 0x49013e471ae148fdb566bd209224dfc922655a660 CELO0.000055922791
[ Download CSV Export 
Parent Txn Hash Block From To Value
Loading

Contract Name:
0

Compiler Version
0

Optimization Enabled:
0

Other Settings:
-NA-
Block Transaction Gas Used Reward
Age Block Fee Address BC Fee Address Voting Power Jailed Incoming
Block Uncle Number Difficulty Gas Used Reward
Loading
Make sure to use the "Vote Down" button for any spammy posts, and the "Vote Up" for interesting conversations.